sat.trackr.live / text

‹ back to catalog

IRIDIUM 166

NORAD 43570 · 2018-061B

PAYLOAD ACTIVE UNKNOWN

§ Identity

Operator
Country
US
Launch date
2018-07-25
Launch site
AFWTR
Launch vehicle
Mass (kg)
RCS (m²)

Purposes: comms

External: N2YO · Heavens-Above · Gunter

§ Orbital elements

Epoch: 2026-05-25T04:50:22.445952Z

Period
100.40 min
Inclination
86.3968°
Eccentricity
0.0002160
Mean motion
14.34218127 rev/d
Perigee alt
776.1 km
Apogee alt
779.2 km
Semi-major
7,155.8 km
B*
3.3547e-5
RAAN
66.3567°
Arg perigee
82.3919°
Mean anomaly
277.7522°
Rev number
41,010

§ Raw data

IRIDIUM 1661 43570U 18061B   26145.20164868  .00000114  00000+0  33547-4 0  99992 43570  86.3968  66.3567 0002160  82.3919 277.7522 14.34218127410106

JSON: /api/v1/satellites/43570 · /tle

For live sub-satellite position, see the globe view (requires WebGL).

§ Visibility from observer

Set your observer location to see the next 7 days of passes ≥ 10°. The values pass through the URL so the page stays shareable.

No JS? Fill the form by hand. The geolocation button needs JavaScript.